weather.gov     
National Weather Service

Regional Weather Roundup
NWS Homepage
This page is being discontinued on March 12, 2014.
The same data is available at this site. Please update your bookmarks.
Thank you, and we apologize for the inconvenience.
Please send an email to SR-SRH.Webmaster@noaa.gov with any concerns.


Current Version
Previous Version:    01  02  03  04  05  06  07  08  09  10  11  12  13  14  15  16  17  18  19  20  21  22  23  24  25  26  
[Printable]
336
ASUS42 KTBW 210910
RWRFL
FLORIDA REGIONAL WEATHER ROUNDUP
NATIONAL WEATHER SERVICE TAMPA BAY RUSKIN FL
500 AM EDT MON APR 21 2014

NOTE: "FAIR" INDICATES FEW OR NO CLOUDS BELOW 12,000 FEET WITH NO
SIGNIFICANT WEATHER AND/OR OBSTRUCTIONS TO VISIBILITY.


FLZ001>010-012>015-112-114-115-211000-
PANHANDLE FLORIDA

CITY           SKY/WX    TMP DP  RH WIND       PRES   REMARKS
PENSACOLA      CLEAR     54  51  90 CALM      30.12S
PENSACOLA NAS  CLEAR     52  52 100 NW3       30.12S FOG
MILTON NAS     CLEAR     48  46  93 CALM      30.12S FOG
CRESTVIEW      CLEAR     47  46  97 E3        30.13F FOG
DUKE FIELD     FAIR      48  46  93 CALM      30.12S FOG
VALPARAISO     CLEAR     50  50  99 N2        30.11F
MARY ESTHER    CLEAR     51  47  85 N5        30.11S
PANAMA CITY    FAIR      50  48  93 CALM      30.11S
TYNDALL AFB    CLEAR     52  51  97 N3        30.12R
APALACHICOLA   CLEAR     55  51  86 NE3       30.09S

STATION/POSITION SKY/WX   TEMP    WIND        PRES    WAVE   SWELL
                          AIR SEA DIR/SP/G            HT/PER HT/PER
                          (F)     (DEG/KT/KT) (MB)    (FT/S) (FT/S)
30.1N   87.6W              63 66  110/  8/ 10 1019.9R   1/ 4
29.2N   88.2W              63 70   70/ 10/ 16 1019.8S
28.8N   86.0W              64 67   80/ 10/ 12 1019.2    2/ 4
PANAMA CITY BEAC           55 66  350/  4/  5 1019.6R
CAPE SAN BLAS    NOT AVBL
TOWER C                    62      60/  7/  8 1018.8S
28.5N   84.5W              65 68   80/ 14/ 16 1018.3F   2/ 5

$$
FLZ011-016>038-118-127-128-134-139-239-211000-
NORTH FLORIDA

CITY           SKY/WX    TMP DP  RH WIND       PRES   REMARKS
MARIANNA       FOG       50  50 100 CALM      30.11S VSB 3/4
TALLAHASSEE    CLEAR     49  46  90 NW5       30.11S
PERRY          FOG       50  50 100 CALM      30.10S VSB 3/4
CROSS CITY       N/A     55  54  96 CALM      30.08F
GAINESVILLE    CLOUDY    57  55  93 NW5       30.07S
MAYPORT NAS    CLOUDY    62  55  77 NW5       30.06S
JACKSONVILLE   MOCLDY    56  55  97 N3        30.06F
JAX NAS        CLOUDY    62  54  74 N9        30.07S
JAX CRAIG      CLOUDY    62  55  77 N7        30.06S
JAX CECIL      MOCLDY    54  54 100 CALM      30.08R FOG
FERNANDINA BEA CLOUDY    61  54  77 N6        30.04F
ST AUGUSTINE   CLOUDY    61  56  83 NW6       30.06F

STATION/POSITION SKY/WX   TEMP    WIND        PRES    WAVE   SWELL
                          AIR SEA DIR/SP/G            HT/PER HT/PER
                          (F)     (DEG/KT/KT) (MB)    (FT/S) (FT/S)
SHELL POINT                55     360/  5/  6 1018.2F
KEATON BEACH               54      30/  1/  2 1019.0S
CEDAR KEY                  59      20/  5/  7 1018.9S
FERNANDINA                 61 64  360/  8/  9 1017.1F
30.7N   81.3W                 63                N/A     5/ 7   2/11
MAYPORT                    62 65  350/  6/  8   N/A
31.4N   80.9W              62 63   30/ 17/ 19 1017.3F   5/ 6   2/12
ST AUGUSTINE               61     320/  4/  6 1018.1F

$$
FLZ040-043>046-052-053-057-058-063-144-211000-
INTERIOR CENTRAL FLORIDA

CITY           SKY/WX    TMP DP  RH WIND       PRES   REMARKS
OCALA          CLOUDY    59  52  77 N5        30.08S
THE VILLAGES     N/A     61  55  82 CALM      30.07S
LEESBURG       CLOUDY    62  56  80 N6        30.07S
SANFORD        CLOUDY    61  58  90 NW9       30.04F
ORLANDO EXEC   CLOUDY    61  56  83 N9        30.05S
ORLANDO INTL   CLOUDY    62  56  80 N12       30.05F
WINTER HAVEN   CLOUDY    62  56  80 N9        30.06S
LAKELAND       CLOUDY    61  55  82 N6        30.05F
BARTOW         CLOUDY    61  55  82 N5        30.06S
OKEECHOBEE     CLEAR     54  54 100 N5        30.04S

$$
FLZ041-047-054-059-064-141-147-211000-
EAST CENTRAL FLORIDA

CITY           SKY/WX    TMP DP  RH WIND       PRES   REMARKS
DAYTONA BEACH  CLOUDY    60  57  89 NW7       30.05F
DELAND         CLOUDY    59  57  94 NW7       30.06F
JFK SPACE CTR  CLOUDY    61  58  91 NW10      30.02S
CAPE CANAVERAL MOCLDY    61  59  94 NW14G20   30.00F
PATRICK AFB    PTCLDY    62  59  91 NW17      30.01F
MELBOURNE      PTCLDY    60  58  92 NW10      30.01F
VERO BEACH     CLOUDY    61  59  93 NW8       30.01F
FT PIERCE      CLOUDY    60  57  89 W6        30.01S
STUART         PTCLDY    59  59 100 NW8       30.02S

STATION/POSITION SKY/WX   TEMP    WIND        PRES    WAVE   SWELL
                          AIR SEA DIR/SP/G            HT/PER HT/PER
                          (F)     (DEG/KT/KT) (MB)    (FT/S) (FT/S)
28.5N   80.2W              66 70  330/ 21/ 25 1015.1F
28.9N   78.5W              72 74  330/ 17/ 19 1013.1F   8/ 8   5/ 8
TRIDENT PIER               62 73  300/  9/ 14 1015.7F
28.4N   80.5W                 72                N/A     3/10   2/11
27.6N   80.2W                 73                N/A     5/10   2/11

$$
FLZ050-056-061-142-242-148-248-149-249-151-251-155-255-
160-260-211000-
WEST CENTRAL FLORIDA

CITY           SKY/WX    TMP DP  RH WIND       PRES   REMARKS
CRYSTAL RIVER  CLOUDY    59  55  88 CALM      30.07S
INVERNESS      CLOUDY    61  54  77 CALM      30.07F
BROOKSVILLE    CLOUDY    61  54  77 NE6       30.07F
CLEARWATER     CLOUDY    63  55  75 NE9       30.06S
TAMPA INTL     CLOUDY    62  56  80 N6        30.07S
TAMPA EXEC     CLOUDY    63  55  77 CALM      30.07S
PLANT CITY     CLOUDY    63  59  88 N5        30.07F
MACDILL AFB    CLOUDY    62  58  88 NE8       30.06S
PETER O KNIGHT CLOUDY    64  57  77 NE9       30.06S
ST PETERSBURG  CLOUDY    65  58  78 NE13      30.04F
SARASOTA       CLOUDY    62  56  80 N6        30.04F
VENICE         CLOUDY    63  57  82 NE8       30.05S

STATION/POSITION SKY/WX   TEMP    WIND        PRES    WAVE   SWELL
                          AIR SEA DIR/SP/G            HT/PER HT/PER
                          (F)     (DEG/KT/KT) (MB)    (FT/S) (FT/S)
CEDAR KEY                  59      20/  5/  7 1018.9S
28.5N   84.5W              65 68   80/ 14/ 16 1018.3F   2/ 5
27.3N   84.3W                 72                N/A     3/ 5
CLEARWATER BEACH           63 70   30/  6/  8 1017.5S
MIDDLE TAMPA BAY           63      90/ 11/ 13 1017.7F
VENICE                     63 73   30/  6/  7 1016.8F

$$
FLZ066-069-070-075>078-162-262-165-265-211000-
SOUTHWEST FLORIDA AND KEYS

CITY           SKY/WX    TMP DP  RH WIND       PRES   REMARKS
PUNTA GORDA    PTCLDY    61  58  90 N5        30.06R
FT MYERS       PTCLDY    60  58  92 CALM      30.03S
SOUTHWEST INTL PTCLDY    60  57  89 CALM      30.03S
NAPLES         PTCLDY    62  59  90 NE7       30.02F
MARATHON       CLEAR     70  62  76 NE12      29.99S
KEY WEST NAS   PTCLDY    72  64  76 NE9       29.99S
KEY WEST INTL  CLOUDY    73  64  73 NE8       29.99F

STATION/POSITION SKY/WX   TEMP    WIND        PRES    WAVE   SWELL
                          AIR SEA DIR/SP/G            HT/PER HT/PER
                          (F)     (DEG/KT/KT) (MB)    (FT/S) (FT/S)
VENICE                     63 73   30/  6/  7 1016.8F
NAPLES                     63 76   50/  5/  9 1016.9S
26.0N   85.6W              70 80   50/ 16/ 17 1017.5F   2/ 5
DRY TORTUGAS     NOT AVBL
NW FL BAY                  70      40/ 13/ 15 1015.9F
SOMBRERO KEY               72      30/ 15/ 16 1015.8F
LONG KEY                   70 78   30/ 16/ 17 1016.3R
MOLASSES REEF              71 78   10/ 14/ 15 1015.0F

$$
FLZ067-068-071>074-168-172>174-211000-
SOUTHEAST FLORIDA

CITY           SKY/WX    TMP DP  RH WIND       PRES   REMARKS
W PALM BEACH   PTCLDY    62  58  86 NW8       29.99F
FT LAUDER-EXEC PTCLDY    63  58  83 NW8       30.00S
FT LAUDERDALE  MOCLDY    64  58  80 N10       29.99F
POMPANO BEACH  CLEAR     63  58  83 NW7       30.00F
PEMBROKE PINES PTCLDY    64  59  83 N8        30.01F
OPA LOCKA      PTCLDY    64  58  80 N6        30.00F
MIAMI          PTCLDY    66  60  81 VRB6      30.00S
WEST KENDALL   CLEAR     62  61  96 N8        29.99F
HOMESTEAD      CLEAR     64  59  82 N6        29.99F

STATION/POSITION SKY/WX   TEMP    WIND        PRES    WAVE   SWELL
                          AIR SEA DIR/SP/G            HT/PER HT/PER
                          (F)     (DEG/KT/KT) (MB)    (FT/S) (FT/S)
PORT EVERGLADES            65     320/  9/ 12 1015.4
VIRGINIA KEY               67 79  360/  5/  9 1015.5F
LAKE WORTH                 63 74  320/  7/  9 1015.3S
FOWEY ROCKS                69 77  350/ 14/ 15 1015.4F
SETTLEMENT POINT           72     310/ 16/ 18 1014.9F

$$





U.S. Dept. of Commerce
NOAA National Weather Service
1325 East West Highway
Silver Spring, MD 20910
E-mail: w-nws.webmaster@noaa.gov
Page last modified: May 16, 2007
NATIONAL WEATHER SERVICE: for Safety, for Work, for Fun - FOR LIFE